Weather History for KBOI - November, 2012

Change the Weather History Date:

Thursday, November 29, 2012

  Actual Average Record
Temperature  
Mean Temperature 47 °F 34 °F  
Max Temperature 57 °F 42 °F 68 °F (1932)
Min Temperature 37 °F 28 °F -9 °F (1896)
Degree Days  
Heating Degree Days 18 31  
Month to date heating degree days 593 718  
Since 1 July heating degree days 968 1224  
Cooling Degree Days 0 0  
Month to date cooling degree days 0 0  
Year to date cooling degree days 1274 942  
Moisture  
Dew Point 37 °F    
Average Humidity 66    
Maximum Humidity 92    
Minimum Humidity 40    
Precipitation  
Precipitation 0.00 in 0.05 in 0.52 in (1917)
Month to date precipitation 0.56 1.30  
Year to date precipitation 10.45 10.13  
Snow  
Snow 0.00 in 0.10 in 3.00 in (1919)
Month to date snowfall T 2.4  
Since 1 July snowfall T 2.5  
Snow Depth 0.00 in    
Sea Level Pressure  
Sea Level Pressure 29.92 in    
Wind  
Wind Speed 12 mph (SE)    
Max Wind Speed 21 mph    
Max Gust Speed 24 mph    
Visibility 10 miles    
Events      
T = Trace of Precipitation, MM = Missing Value Source: NWS Daily Summary

Daily Weather History Graph

Daily Weather History Graph

Search for Another Location

Airport or City:

Trip Planner

Search our weather history database for the weather conditions in past years. The results will help you decide how hot, cold, wet, or windy it might be!

Date:

Astronomy

Nov. 29, 2012 Rise Set
Actual Time 7:56 AM MST 5:10 PM MST
Civil Twilight 7:24 AM MST 5:42 PM MST
Nautical Twilight 6:49 AM MST 6:17 PM MST
Astronomical Twilight 6:14 AM MST 6:52 PM MST
Moon 6:16 PM MST (11/29) 8:47 AM MST (11/29)
Length of Visible Light 10h 17m
Length of Day
9h 13m
Full, 99% of the Moon is Illuminated
Nov 29
Full
Dec 6
Last Quarter
Dec 13
New
Dec 19
First Quarter
Dec 28
Full

Hourly Weather History & Observations

Time (MST) Temp. Windchill Dew Point Humidity Pressure Visibility Wind Dir Wind Speed Gust Speed Precip Events Conditions
12:53 AM 39.9 °F 37.8 °F 37.9 °F 93% 30.01 in 6.0 mi East 3.5 mph - N/A   Mostly Cloudy
1:53 AM 44.1 °F 39.0 °F 39.0 °F 82% 29.99 in 10.0 mi SE 9.2 mph - N/A   Mostly Cloudy
2:53 AM 43.0 °F 37.7 °F 37.9 °F 82% 30.00 in 10.0 mi SE 9.2 mph - N/A   Clear
3:53 AM 42.1 °F 36.6 °F 37.9 °F 85% 30.02 in 10.0 mi ESE 9.2 mph - N/A   Scattered Clouds
4:53 AM 43.0 °F 37.7 °F 37.0 °F 80% 30.00 in 10.0 mi ESE 9.2 mph - N/A   Clear
5:53 AM 39.0 °F 35.7 °F 35.1 °F 86% 30.02 in 10.0 mi East 4.6 mph - N/A   Clear
6:53 AM 44.1 °F 38.1 °F 37.0 °F 76% 30.01 in 10.0 mi ESE 11.5 mph - N/A   Clear
7:53 AM 46.0 °F 40.6 °F 37.0 °F 71% 30.01 in 10.0 mi ESE 11.5 mph - N/A   Mostly Cloudy
8:53 AM 44.1 °F 38.6 °F 37.0 °F 76% 30.01 in 10.0 mi SE 10.4 mph - N/A   Partly Cloudy
9:53 AM 46.0 °F 40.2 °F 37.0 °F 71% 29.98 in 10.0 mi SE 12.7 mph - N/A   Clear
10:53 AM 48.0 °F - 37.9 °F 68% 29.99 in 10.0 mi SE 17.3 mph - N/A   Clear
11:53 AM 50.0 °F - 39.0 °F 66% 29.96 in 10.0 mi ESE 17.3 mph - N/A   Clear
12:53 PM 54.0 °F - 37.9 °F 55% 29.91 in 10.0 mi ESE 16.1 mph - N/A   Clear
1:53 PM 55.0 °F - 37.0 °F 51% 29.90 in 10.0 mi ESE 15.0 mph - N/A   Clear
2:53 PM 55.9 °F - 37.0 °F 49% 29.87 in 10.0 mi SE 11.5 mph - N/A   Clear
3:53 PM 54.0 °F - 37.0 °F 53% 29.89 in 10.0 mi SSE 10.4 mph - N/A   Clear
4:53 PM 53.1 °F - 36.0 °F 52% 29.88 in 10.0 mi SE 12.7 mph - N/A   Overcast
5:53 PM 53.1 °F - 35.1 °F 50% 29.87 in 10.0 mi SE 13.8 mph - N/A   Overcast
6:53 PM 55.0 °F - 35.1 °F 47% 29.83 in 10.0 mi ESE 16.1 mph - N/A   Scattered Clouds
7:53 PM 55.9 °F - 35.1 °F 45% 29.84 in 10.0 mi ESE 13.8 mph - N/A   Mostly Cloudy
8:53 PM 55.9 °F - 35.1 °F 45% 29.81 in 10.0 mi ESE 16.1 mph - N/A   Mostly Cloudy
9:53 PM 55.9 °F - 34.0 °F 44% 29.81 in 10.0 mi SE 15.0 mph - N/A   Mostly Cloudy
10:53 PM 57.0 °F - 34.0 °F 42% 29.78 in 10.0 mi ESE 15.0 mph - N/A   Overcast
11:53 PM 55.9 °F - 35.1 °F 45% 29.78 in 10.0 mi SE 16.1 mph - N/A   Overcast